This demonstration page uses our WeatherBlox Daily Observations layout. Learn more.

Left ArrowRight Arrow

39.12711, -84.51439

Hourly Observations for September 13, 2022

Temp ( °F °C ) Dew Point ( °F °C ) Humidity (%) Winds ( mph kmh ) Pressure ( in mb ) Visibility ( mi km ) Precip ( " mm )
12:53 am 00:53 Mostly Cloudy 60 15.6 55 12.8 83 83 SSW 7 11 29.83 1010 10 16 0.00 0.00
1:53 am 01:53 Mostly Cloudy 58 14.4 55 12.8 90 90 SSW 6 9 29.83 1010 10 16 0.00 0.00
2:53 am 02:53 Mostly Clear 58 14.4 54 12.2 87 87 SW 9 15 29.82 1010 10 16 0.00 0.00
3:53 am 03:53 Cloudy 60 15.6 55 12.8 83 83 SW 7 11 29.82 1010 10 16 0.00 0.00
4:53 am 04:53 Cloudy 62 16.7 54 12.2 75 75 WSW 8 13 29.82 1010 10 16 0.00 0.00
5:53 am 05:53 Cloudy 61 16.1 53 11.7 75 75 W 9 15 29.83 1010 10 16 0.00 0.00
6:53 am 06:53 Mostly Clear 60 15.6 53 11.7 78 78 W 8 13 29.84 1011 10 16 0.00 0.00
7:53 am 07:53 Mostly Sunny 59 15 54 12.2 83 83 W 7 11 29.87 1011 10 16 0.00 0.00
8:53 am 08:53 Mostly Cloudy 60 15.6 54 12.2 80 80 W 8 13 29.89 1012 10 16 0.00 0.00
9:53 am 09:53 Mostly Cloudy 63 17.2 54 12.2 72 72 VRB 5 7 29.91 1013 10 16 0.00 0.00
10:53 am 10:53 Mostly Cloudy 65 18.3 53 11.7 65 65 W 10 17 29.92 1013 10 16 0.00 0.00
11:00 am 11:00 Mostly Sunny 66 18.9 53 11.7 63 63 NW 12 19 29.92 1013 10 16 0.00 0.00
11:13 am 11:13 Mostly Cloudy 66 18.9 53 11.7 63 63 NNW 7 11 29.92 1013 10 16 0.00 0.00
11:53 am 11:53 Mostly Cloudy 67 19.4 54 12.2 63 63 W 12 19 29.93 1013 10 16 0.00 0.00
12:53 pm 12:53 Partly Cloudy 69 20.6 53 11.7 57 57 W 6 9 29.93 1014 10 16 0.00 0.00
1:53 pm 13:53 Mostly Cloudy 72 22.2 54 12.2 53 53 W 10 17 29.93 1014 10 16 0.00 0.00
2:53 pm 14:53 Mostly Cloudy 73 22.8 52 11.1 48 48 VRB 5 7 29.93 1013 10 16 0.00 0.00
3:53 pm 15:53 Mostly Cloudy 75 23.9 54 12.2 48 48 NW 6 9 29.92 1013 10 16 0.00 0.00
4:53 pm 16:53 Mostly Sunny 72 22.2 54 12.2 53 53 VRB 5 7 29.92 1013 10 16 0.00 0.00
5:53 pm 17:53 Mostly Cloudy 73 22.8 54 12.2 51 51 WNW 10 17 29.93 1014 10 16 0.00 0.00
6:53 pm 18:53 Mostly Cloudy 71 21.7 56 13.3 59 59 W 12 19 29.95 1014 10 16 0.00 0.00
7:53 pm 19:53 Mostly Cloudy 69 20.6 57 13.9 65 65 NW 6 9 29.97 1015 10 16 0.00 0.00
8:53 pm 20:53 Mostly Cloudy 68 20 58 14.4 70 70 NW 7 11 29.99 1016 10 16 0.00 0.00
9:53 pm 21:53 Mostly Clear 67 19.4 58 14.4 73 73 NW 8 13 30.00 1016 10 16 0.00 0.00
10:53 pm 22:53 Clear 62 16.7 58 14.4 86 86 Calm 30.01 1016 10 16 0.00 0.00
11:53 pm 23:53 Cloudy 61 16.1 60 15.6 97 97 Calm 30.02 1017 10 16 0.00 0.00

Powered by AerisWeather